Zaragoza, Spain

6:42 PM CEST on April 29, 2017 (GMT +0200)
Zaragoza

Weather History for LEZG - October, 2012

Change the Weather History Date:

Saturday, October 6, 2012

  Actual Average Record
Temperature  
Mean Temperature 69 °F -  
Max Temperature 82 °F 66 °F 84 °F (2004)
Min Temperature 56 °F 48 °F 42 °F (2003)
Cooling Degree Days 4    
Growing Degree Days 19 (Base 50)    
Moisture  
Dew Point 56 °F    
Average Humidity 69    
Maximum Humidity 94    
Minimum Humidity 30    
Precipitation  
Precipitation 0.00 in 0.04 in - ()
Sea Level Pressure  
Sea Level Pressure 30.09 in    
Wind  
Wind Speed 4 mph ()    
Max Wind Speed 12 mph    
Max Gust Speed -    
Visibility 5.2 miles    
Events      
Averages and records for this station are not official NWS values.
T = Trace of Precipitation, MM = Missing Value Source: Averaged Metar Reports

Daily Weather History Graph

Daily Weather History Graph

Search for Another Location

Airport or City:

Trip Planner

Search our weather history database for the weather conditions in past years. The results will help you decide how hot, cold, wet, or windy it might be!

Date:

Astronomy

Oct. 06, 2012 Rise Set
Actual Time 8:06 AM CEST 7:36 PM CEST
Civil Twilight 7:38 AM CEST 8:04 PM CEST
Nautical Twilight 7:06 AM CEST 8:36 PM CEST
Astronomical Twilight 6:34 AM CEST 9:09 PM CEST
Moon 11:35 PM CEST (10/6) 1:53 PM CEST (10/6)
Length of Visible Light 12h 25m
Length of Day
11h 30m
Waning Gibbous, 68% of the Moon is Illuminated
Oct 6
Waning Gibbous
Oct 8
Last Quarter
Oct 15
New
Oct 22
First Quarter
Oct 29
Full

Hourly Weather History & Observations

Time (CEST) Temp. Heat Index Dew Point Humidity Pressure Visibility Wind Dir Wind Speed Gust Speed Precip Events Conditions
12:00 AM 64.4 °F - 55.4 °F 73% 30.09 in - ENE 4.6 mph - N/A   Clear
12:30 AM 64.4 °F - 55.4 °F 73% 30.09 in - Variable 2.3 mph - N/A   Clear
1:00 AM 62.6 °F - 57.2 °F 82% 30.09 in - East 5.8 mph - N/A   Clear
1:30 AM 62.6 °F - 57.2 °F 82% 30.09 in - East 3.5 mph - N/A   Clear
2:00 AM 64 °F - 59 °F 78% 30.08 in 12 mi ESE 5.8 mph - -   Clear
2:00 AM 62.6 °F - 57.2 °F 82% 30.09 in - East 5.8 mph - N/A   Clear
2:30 AM 62.6 °F - 57.2 °F 82% 30.09 in - ESE 5.8 mph - N/A   Clear
3:00 AM 60.8 °F - 57.2 °F 88% 30.09 in - East 4.6 mph - N/A   Clear
3:30 AM 60.8 °F - 55.4 °F 82% 30.09 in - East 3.5 mph - N/A   Clear
4:00 AM 60.8 °F - 55.4 °F 82% 30.09 in - East 2.3 mph - N/A   Clear
4:30 AM 59.0 °F - 55.4 °F 88% 30.09 in - Calm Calm - N/A   Clear
5:00 AM 59.0 °F - 55.4 °F 88% 30.09 in - Variable 2.3 mph - N/A   Clear
5:30 AM 59.0 °F - 55.4 °F 88% 30.09 in - Variable 2.3 mph - N/A   Clear
6:00 AM 57.2 °F - 55.4 °F 94% 30.09 in - SE 3.5 mph - N/A   Clear
6:30 AM 57.2 °F - 55.4 °F 94% 30.12 in - ESE 4.6 mph - N/A   Clear
7:00 AM 57.2 °F - 55.4 °F 94% 30.12 in - SE 3.5 mph - N/A   Clear
7:30 AM 57.2 °F - 53.6 °F 88% 30.09 in - ESE 3.5 mph - N/A   Clear
8:00 AM 57 °F - 54 °F 88% 30.11 in 6 mi ESE 3.5 mph - -  
8:00 AM 57.2 °F - 53.6 °F 88% 30.12 in - SE 4.6 mph - N/A   Clear
8:30 AM 57.2 °F - 53.6 °F 88% 30.12 in - Calm Calm - N/A   Clear
9:00 AM 57.2 °F - 55.4 °F 94% 30.12 in - SSE 1.2 mph - N/A   Clear
9:30 AM 59.0 °F - 53.6 °F 82% 30.15 in - Calm Calm - N/A   Clear
10:00 AM 60.8 °F - 55.4 °F 82% 30.12 in - ESE 5.8 mph - N/A   Clear
10:30 AM 62.6 °F - 55.4 °F 77% 30.15 in 6.2 mi East 6.9 mph - N/A   Scattered Clouds
11:00 AM 62.6 °F - 57.2 °F 82% 30.15 in 3.7 mi ESE 5.8 mph - N/A   Scattered Clouds
11:19 AM 62.6 °F - 59.0 °F 88% 30.15 in 3.7 mi East 4.6 mph - N/A   Mostly Cloudy
11:30 AM 62.6 °F - 59.0 °F 88% 30.15 in 2.5 mi East 3.5 mph - N/A   Mostly Cloudy
12:00 PM 64.4 °F - 59.0 °F 83% 30.15 in 3.1 mi Variable 2.3 mph - N/A   Scattered Clouds
12:30 PM 66.2 °F - 59.0 °F 78% 30.12 in 3.1 mi SE 4.6 mph - N/A   Scattered Clouds
1:00 PM 69.8 °F - 59.0 °F 68% 30.12 in 5.6 mi ESE 6.9 mph - N/A   Partly Cloudy
1:30 PM 73.4 °F - 59.0 °F 61% 30.12 in 5.6 mi East 6.9 mph - N/A   Unknown
2:00 PM 74 °F - 61 °F 55% 30.07 in 6 mi East 6.9 mph - -   Partly Cloudy
2:00 PM 75.2 °F - 59.0 °F 57% 30.09 in - East 6.9 mph - N/A   Clear
2:30 PM 77.0 °F - 59.0 °F 54% 30.09 in - East 9.2 mph - N/A   Clear
3:00 PM 78.8 °F - 57.2 °F 47% 30.06 in - East 9.2 mph - N/A   Clear
3:30 PM 78.8 °F - 53.6 °F 42% 30.06 in - East 10.4 mph - N/A   Clear
4:00 PM 78.8 °F - 55.4 °F 44% 30.06 in - East 9.2 mph - N/A   Clear
4:30 PM 78.8 °F - 55.4 °F 44% 30.06 in - East 9.2 mph - N/A   Clear
5:00 PM 78.8 °F - 55.4 °F 44% 30.06 in - East 5.8 mph - N/A   Clear
5:30 PM 80.6 °F 80.3 °F 53.6 °F 39% 30.04 in - East 6.9 mph - N/A   Clear
6:00 PM 80.6 °F 80.3 °F 53.6 °F 39% 30.04 in - East 5.8 mph - N/A   Clear
6:30 PM 80.6 °F - 50.0 °F 34% 30.04 in - SE 6.9 mph - N/A   Clear
7:00 PM 78.8 °F - 51.8 °F 39% 30.04 in - SE 8.1 mph - N/A   Clear
7:30 PM 78.8 °F - 51.8 °F 39% 30.04 in - SSE 9.2 mph - N/A   Clear
8:00 PM 80 °F - 54 °F 30% 30.01 in 37 mi SE 5.8 mph - -   Mostly Cloudy
8:00 PM 77.0 °F - 51.8 °F 41% 30.06 in - SSE 3.5 mph - N/A   Clear
8:30 PM 75.2 °F - 53.6 °F 47% 30.06 in - Calm Calm - N/A   Clear
9:00 PM 73.4 °F - 53.6 °F 50% 30.06 in - Calm Calm - N/A   Clear
9:30 PM 71.6 °F - 55.4 °F 57% 30.09 in - Calm Calm - N/A   Clear
10:00 PM 68.0 °F - 53.6 °F 60% 30.09 in - NW 5.8 mph - N/A   Clear
10:30 PM 69.8 °F - 57.2 °F 64% 30.12 in - West 9.2 mph - N/A   Clear
11:00 PM 68.0 °F - 55.4 °F 64% 30.12 in - West 9.2 mph - N/A   Clear
11:30 PM 69.8 °F - 53.6 °F 56% 30.12 in - West 11.5 mph - N/A   Clear